Regional Weather Roundup
Issued by NWS

Home | Current Version | Previous Version | Text Only | Print | Product List | Glossary On
Versions: 1 2 3 4 5 6 7 8 9 10 11 12 13 14 15 16 17 18 19 20 21 22 23 24 25 26 27 28 29 30 31 32 33 34 35 36 37 38 39 40 41 42 43 44 45 46 47 48 49 50
000
ASUS43 KTOP 201408
RWRKS

WEATHER ROUNDUP FOR KANSAS
NATIONAL WEATHER SERVICE GOODLAND KS
800 AM CST SAT DEC 20 2014

NOTE:  "FAIR" INDICATES FEW OR NO CLOUDS BELOW 12,000 FEET WITH NO
SIGNIFICANT WEATHER AND/OR OBSTRUCTIONS TO VISIBILITY.

KSZ001>006-013>018-027>032-041>047-201500-
NORTHWEST KANSAS

CITY           SKY/WX    TMP DP  RH WIND       PRES   REMARKS
GOODLAND       CLEAR     28  24  85 W9        30.03R
HAYS           CLEAR     25  16  68 SW6       30.08S
HILL CITY      CLEAR     26  23  88 W5        30.07R
RUSSELL        CLEAR     27  26  96 S8        30.08S FOG
$$

KSZ061>065-074>080-084>089-201500-
SOUTHWEST KANSAS

CITY           SKY/WX    TMP DP  RH WIND       PRES   REMARKS
DODGE CITY     PTCLDY    30  28  92 S12       30.09S FOG     WCI  20
ELKHART          N/A    N/A N/A N/A MISG        N/A
GARDEN CITY    CLEAR     22  21  96 SW7       30.07S
GREAT BEND     PTCLDY    28  23  80 S6        30.11S
LIBERAL        CLOUDY    27  23  86 SW14      30.11F VSB 1/4 WCI  15
PRATT          MOCLDY    32  32 100 S7        30.12F FOG
$$

KSZ066>073-081>083-090>101-201500-
SOUTHEAST KANSAS

CITY           SKY/WX    TMP DP  RH WIND       PRES   REMARKS
CHANUTE        CLOUDY    37  33  85 S6        30.23R
COFFEYVILLE    CLOUDY    37  34  89 S5        30.24S
HUTCHINSON     PTCLDY    35  32  88 S8        30.14S FOG
MEDICINE LODGE   N/A     33  33 100 S6        30.14F
NEWTON         PTCLDY    34  28  80 SW15      30.16S WCI  24
PARSONS        CLOUDY    37  35  92 CALM      30.25R
WICHITA INTL   MOCLDY    35  33  92 S9        30.17S FOG
WICHITA JABRA  CLEAR     34  32  92 SW12      30.17S WCI  25
WICHITA MCCONL CLOUDY    35  34  95 S8        30.18S FOG
WINFIELD       CLOUDY    37  34  89 S8        30.20S
$$

KSZ007>012-019>026-033>040-048>060-102>105-201500-
NORTHEAST KANSAS

CITY           SKY/WX    TMP DP  RH WIND       PRES   REMARKS
CONCORDIA      CLEAR     27  27 100 S8        30.08S FOG
EMPORIA        CLOUDY    32  31  96 S13       30.16S FOG     WCI  22
LAWRENCE       CLEAR     33  30  88 S10       30.18R WCI  25
MANHATTAN      CLEAR     33  31  92 SW13      30.13R FOG     WCI  24
MARYSVILLE     CLOUDY    32  32 100 SW7       30.10R FOG
OLATHE IND     CLOUDY    33  31  92 S12       30.19S WCI  24
OLATHE EXE     CLOUDY    33  31  92 S12       30.18S WCI  24
SALINA         FOG       33  32  96 S14       30.13S VSB 1/4 WCI  23
TOPEKA BILLARD CLEAR     35  31  85 S10       30.16S WCI  27
TOPEKA FORBES  CLEAR     35  30  82 S14       30.15S WCI  26
$$


USA.gov is the U.S. government's official web portal to all federal, state and local government web resources and services.